www.prizrak.ws

Объявление

топ-линк
ГОСТЕВАЯ
Турнир "Отгадай-КА!"
Games of Forum
New Soft Download
призрачная галерея
Конкурс,акции,призы!
Rock - форум
ЯД раздача WMZ WMR
FAQ по форуму
раздача ICQ номеров
модеры форума
GOLD статусы к файлам!
форумный тотализатор
отгадай картинку и получи приз:
из какого АНИМЕ скрин?! ^_^||из какого фильма кадр?
mp3 конкурсы:угадай мелодию!||отгадай аниме OST!
Пользуйтесь ссылками: Мои сообщения и Поиск по форуму — это удобно!
Добавлять комментарии на форум могут только зарегистрированные пользователи за исключением сообщений в разделе "гостевая".
Перед использованием нашего форума просьба прочитать условия пользовательского соглашения!
При копировании любых материалов с форума, ссылка на форум http://prizrak.ws/ обязательна!
Добавь в закладки! Добавить в ИзбранноеДобавить в ИзбранноеДобавить в ИзбранноеДобавить в ИзбранноеДобавить в Избранное Сделай стартовой!

Информация о пользователе

Привет, Гость! Войдите или зарегистрируйтесь.


Вы здесь » www.prizrak.ws » Software, ОС, программное обеспечение..


Software, ОС, программное обеспечение..

Тем 7751 страница 7800 из 101126

Тема Ответов Просмотров Последнее сообщение
0 4 2019-03-26 17:23:41  BaDshaH
0 3 2019-03-26 17:13:50  apple2000
0 4 2019-03-26 17:09:43  apple2000
0 3 2019-03-26 17:05:06  apple2000
0 3 2019-03-26 17:01:02  apple2000
0 2 2019-03-26 16:58:57  BaDshaH
0 5 2019-03-26 16:57:10  apple2000
0 3 2019-03-26 16:56:09  BaDshaH
0 2 2019-03-26 16:53:56  apple2000
0 1 2019-03-26 16:52:41  Xue Wang
0 3 2019-03-26 16:51:39  Xue Wang
0 4 2019-03-26 16:50:11  apple2000
0 4 2019-03-26 16:46:16  apple2000
0 5 2019-03-26 16:42:17  apple2000
0 5 2019-03-26 16:38:33  apple2000
0 103 2019-03-26 16:34:11  apple2000
0 3 2019-03-26 16:30:06  apple2000
0 4 2019-03-26 16:25:51  apple2000
0 2 2019-03-26 16:23:24  BaDshaH
0 5 2019-03-26 16:21:59  apple2000
0 4 2019-03-26 16:20:46  BaDshaH
0 3 2019-03-26 16:18:30  BaDshaH
0 3 2019-03-26 16:15:53  BaDshaH
0 3 2019-03-26 16:13:59  BaDshaH
0 2 2019-03-26 16:11:37  BaDshaH
0 3 2019-03-26 16:10:02  BaDshaH
0 3 2019-03-26 16:08:39  Trust_Uploader
0 7 2019-03-26 16:07:13  BaDshaH
0 7 2019-03-26 16:05:45  BaDshaH
0 2 2019-03-26 16:04:15  BaDshaH
0 3 2019-03-26 16:03:32  Trust_Uploader
0 3 2019-03-26 16:02:51  BaDshaH
0 2 2019-03-26 16:01:13  BaDshaH
7784 EarthView 5.19.0  BaDshaH
0 3 2019-03-26 15:58:16  BaDshaH
7785 EarthTime 5.19.0  BaDshaH
0 3 2019-03-26 15:56:46  BaDshaH
0 3 2019-03-26 15:55:07  BaDshaH
0 2 2019-03-26 15:53:08  BaDshaH
0 4 2019-03-26 15:51:00  BaDshaH
7789 DocuFreezer 3.0.1903.20130  Trust_Uploader
0 5 2019-03-26 15:25:59  Trust_Uploader
0 4 2019-03-26 15:24:53  Trust_Uploader
0 9 2019-03-26 15:23:44  Trust_Uploader
0 4 2019-03-26 15:22:38  Trust_Uploader
0 5 2019-03-26 15:21:32  Trust_Uploader
0 4 2019-03-26 15:19:40  Trust_Uploader
7795 Cadence MMSIM v15.10.385  Xue Wang
0 3 2019-03-26 15:00:28  Xue Wang
0 3 2019-03-26 14:58:21  Xue Wang
0 3 2019-03-26 13:31:56  Trust_Uploader
7798 Denise Space Invader v1.0.0  Trust_Uploader
0 3 2019-03-26 13:30:50  Trust_Uploader
7799 Denise Bite v1.0.0  Trust_Uploader
0 4 2019-03-26 13:29:44  Trust_Uploader
0 3 2019-03-26 13:28:38  Trust_Uploader

Вы здесь » www.prizrak.ws » Software, ОС, программное обеспечение..